Terminal Aerodrome Forecast
Issued by NWS

Current Version | Previous Version | Text Only | Print | Product List | Glossary Off
Versions: 1 2 3 4 5 6 7 8 9 10 11 12 13 14 15 16 17 18 19 20 21 22 23 24 25 26 27 28 29 30 31 32 33 34 35 36 37 38 39

000
FTUS41 KRNK 161139
TAFLWB
TAF
KLWB 161139Z 1612/1712 00000KT 6SM -SHRA SCT020 OVC050
      TEMPO 1612/1616 3SM -SHRA BR OVC020
     FM161600 24004KT P6SM SCT020 BKN045
     FM162000 27007G14KT P6SM OVC025
     FM170000 28008KT P6SM OVC018=

USA.gov is the U.S. government's official web portal to all federal, state and local government web resources and services.